TimeMST,TemperatureF,Dew PointF,Humidity,Sea Level PressureIn,VisibilityMPH,Wind Direction,Wind SpeedMPH,Gust SpeedMPH,PrecipitationIn,Events,Conditions,WindDirDegrees,DateUTC
12:57 AM,81.0,35.1,19,29.78,10.0,SSE,3.5,-,N/A,,Clear,160,2013-06-16 07:57:00
1:57 AM,78.1,36.0,22,29.77,10.0,South,4.6,-,N/A,,Clear,170,2013-06-16 08:57:00
2:57 AM,77.0,34.0,21,29.77,10.0,SW,4.6,-,N/A,,Clear,220,2013-06-16 09:57:00
3:57 AM,75.0,37.0,25,29.78,10.0,SSW,3.5,-,N/A,,Clear,200,2013-06-16 10:57:00
4:57 AM,75.9,34.0,22,29.79,10.0,SW,3.5,-,N/A,,Clear,230,2013-06-16 11:57:00
5:57 AM,75.9,30.9,19,29.81,10.0,West,3.5,-,N/A,,Clear,270,2013-06-16 12:57:00
6:57 AM,78.1,33.1,19,29.83,10.0,Calm,Calm,-,N/A,,Clear,0,2013-06-16 13:57:00
7:57 AM,81.0,30.9,16,29.85,10.0,Calm,Calm,-,N/A,,Clear,0,2013-06-16 14:57:00
8:57 AM,87.1,35.1,16,29.86,10.0,Calm,Calm,-,N/A,,Clear,0,2013-06-16 15:57:00
9:57 AM,93.0,25.0,9,29.86,10.0,Calm,Calm,-,N/A,,Clear,0,2013-06-16 16:57:00
10:57 AM,97.0,21.0,6,29.85,10.0,Variable,4.6,-,N/A,,Clear,0,2013-06-16 17:57:00
11:57 AM,99.0,16.0,5,29.84,10.0,Variable,4.6,-,N/A,,Clear,0,2013-06-16 18:57:00
12:57 PM,102.9,19.0,5,29.83,10.0,Variable,3.5,-,N/A,,Clear,0,2013-06-16 19:57:00
1:57 PM,102.9,17.1,5,29.80,10.0,WSW,5.8,-,N/A,,Clear,240,2013-06-16 20:57:00
2:57 PM,104.0,15.1,4,29.78,10.0,West,6.9,-,N/A,,Partly Cloudy,280,2013-06-16 21:57:00
3:57 PM,105.1,18.0,4,29.76,10.0,West,5.8,-,N/A,,Clear,260,2013-06-16 22:57:00
4:57 PM,105.1,15.1,4,29.75,10.0,West,3.5,-,N/A,,Clear,270,2013-06-16 23:57:00
5:57 PM,104.0,14.0,4,29.74,10.0,NW,5.8,-,N/A,,Clear,320,2013-06-17 00:57:00
6:57 PM,102.0,9.0,4,29.74,10.0,West,5.8,-,N/A,,Clear,270,2013-06-17 01:57:00
7:57 PM,98.1,17.1,5,29.74,10.0,WNW,3.5,-,N/A,,Clear,300,2013-06-17 02:57:00
8:57 PM,93.9,21.0,7,29.75,10.0,Calm,Calm,-,N/A,,Clear,0,2013-06-17 03:57:00
9:57 PM,89.1,44.1,21,29.77,10.0,South,15.0,18.4,N/A,,Clear,180,2013-06-17 04:57:00
10:57 PM,84.9,46.9,27,29.78,10.0,SSW,8.1,-,N/A,,Clear,210,2013-06-17 05:57:00
11:57 PM,84.0,48.0,28,29.79,10.0,SSW,3.5,-,N/A,,Clear,200,2013-06-17 06:57:00